Doha, Qatar

8:22 PM +03 on June 27, 2017 (GMT +0300)
Doha

Weather History for 41170 - June, 2013

Change the Weather History Date:

Sunday, June 9, 2013

  Actual Average Record
Temperature  
Mean Temperature 94 °F -  
Max Temperature 101 °F 106 °F - ()
Min Temperature 86 °F 83 °F - ()
Cooling Degree Days 28    
Growing Degree Days 44 (Base 50)    
Moisture  
Dew Point 51 °F    
Average Humidity 24    
Maximum Humidity 40    
Minimum Humidity 8    
Precipitation  
Precipitation 0.00 in 0.00 in - ()
Sea Level Pressure  
Sea Level Pressure 29.53 in    
Wind  
Wind Speed 17 mph ()    
Max Wind Speed 25 mph    
Max Gust Speed 39 mph    
Visibility 4.8 miles    
Events      
T = Trace of Precipitation, MM = Missing Value Source: Averaged Metar Reports

Daily Weather History Graph

Daily Weather History Graph

Search for Another Location

Airport or City:

Trip Planner

Search our weather history database for the weather conditions in past years. The results will help you decide how hot, cold, wet, or windy it might be!

Date:

Astronomy

Jun. 09, 2013 Rise Set
Actual Time 4:42 AM +03 6:23 PM +03
Civil Twilight 4:17 AM +03 6:49 PM +03
Nautical Twilight 3:46 AM +03 7:19 PM +03
Astronomical Twilight 3:13 AM +03 7:52 PM +03
Moon 5:14 AM +03 (6/9) 6:59 PM +03 (6/9)
Length of Visible Light 14h 31m
Length of Day
13h 40m
New Moon, 0% of the Moon is Illuminated
Jun 9
New Moon
Jun 16
First Quarter
Jun 23
Full
Jun 30
Last Quarter
Jul 8
New

Hourly Weather History & Observations

Time (+03) Temp. Heat Index Dew Point Humidity Pressure Visibility Wind Dir Wind Speed Gust Speed Precip Events Conditions
12:00 AM 89.6 °F 87.7 °F 55.4 °F 31% 29.53 in 4.3 mi NW 17.3 mph - N/A   Unknown
12:30 AM 89.6 °F 87.7 °F 55.4 °F 31% 29.53 in 5.0 mi NW 19.6 mph - N/A   Unknown
1:00 AM 89.6 °F 87.7 °F 55.4 °F 31% 29.53 in 5.0 mi NW 17.3 mph 31.1 mph N/A   Unknown
1:30 AM 89.6 °F 87.7 °F 55.4 °F 31% 29.53 in 5.6 mi NW 17.3 mph 29.9 mph N/A   Unknown
2:00 AM 89.6 °F 87.7 °F 55.4 °F 31% 29.50 in 5.6 mi NW 16.1 mph 27.6 mph N/A   Unknown
3:00 AM 87 °F - 58 °F 28% 29.53 in 6 mi NW 16.1 mph - -   Widespread Dust
3:00 AM 87.8 °F 87.1 °F 59.0 °F 38% 29.50 in 5.6 mi NW 16.1 mph - N/A   Unknown
3:30 AM 87.8 °F 86.5 °F 57.2 °F 35% 29.50 in 5.6 mi NW 16.1 mph 28.8 mph N/A   Unknown
4:00 AM 87.8 °F 87.1 °F 59.0 °F 38% 29.53 in 5.6 mi NW 16.1 mph 27.6 mph N/A   Unknown
4:30 AM 86.0 °F 85.4 °F 59.0 °F 40% 29.53 in 5.6 mi NW 15.0 mph - N/A   Unknown
5:00 AM 86.0 °F 84.9 °F 57.2 °F 37% 29.53 in - NW 16.1 mph 28.8 mph N/A   Clear
5:30 AM 87.8 °F 86.5 °F 57.2 °F 35% 29.53 in - NW 15.0 mph 26.5 mph N/A   Clear
6:00 AM 87.8 °F 87.1 °F 59.0 °F 38% 29.53 in - NW 18.4 mph 31.1 mph N/A   Clear
6:30 AM 87.8 °F 87.1 °F 59.0 °F 38% 29.53 in - NW 17.3 mph 31.1 mph N/A   Clear
7:00 AM 89.6 °F 88.1 °F 57.2 °F 33% 29.56 in - NW 18.4 mph 31.1 mph N/A   Clear
7:30 AM 91.4 °F 89.9 °F 57.2 °F 31% 29.56 in - NW 19.6 mph 31.1 mph N/A   Clear
8:00 AM 91.4 °F 89.4 °F 55.4 °F 29% 29.56 in - NNW 20.7 mph 35.7 mph N/A   Clear
8:30 AM 93.2 °F - 51.8 °F 24% 29.56 in 5.0 mi NNW 23.0 mph 34.5 mph N/A   Unknown
9:00 AM 95 °F - 53 °F 15% 29.58 in 5 mi NNW 24.2 mph - -   Widespread Dust
9:00 AM 95.0 °F - 51.8 °F 23% 29.56 in 5.0 mi NNW 24.2 mph 36.8 mph N/A   Unknown
9:30 AM 96.8 °F - 46.4 °F 18% 29.56 in 5.0 mi NNW 24.2 mph 35.7 mph N/A   Unknown
10:00 AM 96.8 °F - 46.4 °F 18% 29.56 in 3.7 mi NNW 25.3 mph 39.1 mph N/A   Unknown
10:30 AM 98.6 °F - 44.6 °F 16% 29.56 in 3.7 mi NW 21.9 mph 33.4 mph N/A   Unknown
11:00 AM 98.6 °F - 41.0 °F 14% 29.56 in 3.7 mi NW 23.0 mph 35.7 mph N/A   Unknown
11:30 AM 100.4 °F - 37.4 °F 11% 29.56 in 3.7 mi NW 21.9 mph 33.4 mph N/A   Unknown
12:00 PM 100.4 °F - 41.0 °F 13% 29.53 in 3.1 mi NW 24.2 mph - N/A   Widespread Dust
12:30 PM 100.4 °F - 42.8 °F 14% 29.53 in 3.1 mi NNW 25.3 mph - N/A   Widespread Dust
1:00 PM 100.4 °F - 42.8 °F 14% 29.53 in 3.1 mi NNW 21.9 mph 33.4 mph N/A   Widespread Dust
2:00 PM 100.4 °F - 44.6 °F 15% 29.53 in 4.3 mi NW 23.0 mph 36.8 mph N/A   Unknown
2:30 PM 100.4 °F - 41.0 °F 13% 29.53 in - NW 21.9 mph - N/A   Clear
3:00 PM 99 °F - 44 °F 8% 29.52 in 6 mi NW 24.2 mph - -  
3:00 PM 98.6 °F - 44.6 °F 16% 29.50 in - NW 24.2 mph 38.0 mph N/A   Clear
4:00 PM 98.6 °F - 42.8 °F 15% 29.50 in - NNW 19.6 mph - N/A   Clear
4:30 PM 96.8 °F - 44.6 °F 17% 29.50 in - NNW 20.7 mph - N/A   Clear
5:00 PM 96.8 °F - 46.4 °F 18% 29.50 in - NNW 18.4 mph - N/A   Clear
6:00 PM 95.0 °F - 46.4 °F 19% 29.50 in - NNW 16.1 mph - N/A   Clear
7:00 PM 93.2 °F - 48.2 °F 21% 29.50 in - NW 15.0 mph - N/A   Clear
8:00 PM 91.4 °F - 50.0 °F 24% 29.53 in - NW 11.5 mph - N/A   Clear
9:00 PM 91 °F - 50 °F 16%  in 7 mi NW 12.7 mph - -  
9:00 PM 91.4 °F - 50.0 °F 24% 29.53 in - NW 12.7 mph - N/A   Clear
9:30 PM 91.4 °F - 51.8 °F 26% 29.53 in - NW 13.8 mph - N/A   Clear
10:00 PM 91.4 °F - 51.8 °F 26% 29.50 in - WNW 13.8 mph - N/A   Clear
10:30 PM 91.4 °F - 48.2 °F 23% 29.50 in - NW 12.7 mph 24.2 mph N/A   Clear
11:00 PM 93.2 °F - 48.2 °F 21% 29.50 in - WNW 11.5 mph - N/A   Clear
11:30 PM 91.4 °F - 50.0 °F 24% 29.50 in 5.6 mi NW 16.1 mph - N/A   Unknown